Change the Weather History Date:

Thursday, April 11, 2013

  Actual Average Record
Temperature  
Mean Temperature 71 °F -  
Max Temperature 82 °F 73 °F 89 °F (1999)
Min Temperature 60 °F 51 °F 42 °F (2003)
Cooling Degree Days 6    
Growing Degree Days 21 (Base 50)    
Moisture  
Dew Point 67 °F    
Average Humidity 84    
Maximum Humidity 94    
Minimum Humidity 65    
Precipitation  
Precipitation 0.87 in - - ()
Sea Level Pressure  
Sea Level Pressure 29.80 in    
Wind  
Wind Speed 10 mph (SSE)    
Max Wind Speed 26 mph    
Max Gust Speed 40 mph    
Visibility 8 miles    
Events Rain , Thunderstorm    
Averages and records for this station are not official NWS values.
T = Trace of Precipitation, MM = Missing Value Source: NWS Daily Summary

Daily Weather History Graph

Daily Weather History Graph

Search for Another Location

Airport or City:

Trip Planner

Search our weather history database for the weather conditions in past years. The results will help you decide how hot, cold, wet, or windy it might be!

Date:

Astronomy

Apr. 11, 2013 Rise Set
Actual Time 6:19 AM CDT 7:08 PM CDT
Civil Twilight 5:54 AM CDT 7:33 PM CDT
Nautical Twilight 5:25 AM CDT 8:02 PM CDT
Astronomical Twilight 4:55 AM CDT 8:32 PM CDT
Moon 6:55 AM CDT (4/11) 8:35 PM CDT (4/11)
Length of Visible Light 13h 39m
Length of Day
12h 49m
New Moon, 2% of the Moon is Illuminated
Apr 11
New Moon
Apr 18
First Quarter
Apr 25
Full
May 2
Last Quarter
May 9
New

Hourly Weather History & Observations

Time (CDT) Temp. Heat Index Dew Point Humidity Pressure Visibility Wind Dir Wind Speed Gust Speed Precip Events Conditions
12:58 AM 63.7 °F - 59.2 °F 85% 29.93 in 10.0 mi SSE 3.5 mph - N/A   Clear
1:58 AM 62.8 °F - 58.8 °F 87% 29.91 in 10.0 mi SSE 2.3 mph - N/A   Clear
2:58 AM 62.4 °F - 58.5 °F 87% 29.89 in 10.0 mi ESE 3.5 mph - N/A   Partly Cloudy
3:38 AM 60.8 °F - 59.0 °F 94% 29.89 in 10.0 mi SE 3.5 mph - N/A   Mostly Cloudy
3:58 AM 62.6 °F - 58.8 °F 87% 29.88 in 10.0 mi SE 4.6 mph - N/A   Overcast
4:43 AM 62.6 °F - 59.0 °F 88% 29.88 in 10.0 mi ESE 4.6 mph - N/A   Scattered Clouds
4:58 AM 63.0 °F - 58.6 °F 86% 29.88 in 5.0 mi ESE 3.5 mph - N/A   Haze
5:08 AM 62.6 °F - 59.0 °F 88% 29.88 in 5.0 mi East 3.5 mph - N/A   Haze
5:13 AM 62.6 °F - 59.0 °F 88% 29.88 in 8.0 mi ESE 3.5 mph - N/A   Mostly Cloudy
5:43 AM 64.4 °F - 60.8 °F 88% 29.88 in 3.0 mi East 5.8 mph - N/A   Haze
5:58 AM 63.7 °F - 60.1 °F 88% 29.89 in 4.0 mi ESE 5.8 mph - N/A   Overcast
6:13 AM 64.4 °F - 60.8 °F 88% 29.89 in 4.0 mi ESE 9.2 mph - N/A   Overcast
6:20 AM 64.4 °F - 60.8 °F 88% 29.89 in 4.0 mi ESE 8.1 mph - N/A   Overcast
6:58 AM 65.7 °F - 63.9 °F 94% 29.90 in 8.0 mi SE 8.1 mph - N/A   Overcast
7:33 AM 68.0 °F - 66.2 °F 94% 29.90 in 10.0 mi SSE 10.4 mph - N/A   Overcast
7:43 AM 68.0 °F - 66.2 °F 94% 29.90 in 10.0 mi SE 10.4 mph - N/A   Overcast
7:58 AM 68.9 °F - 65.8 °F 90% 29.90 in 10.0 mi SE 9.2 mph - N/A   Overcast
8:23 AM 69.8 °F - 66.2 °F 88% 29.89 in 10.0 mi SE 15.0 mph 19.6 mph N/A   Mostly Cloudy
8:33 AM 69.8 °F - 66.2 °F 88% 29.89 in 10.0 mi SE 10.4 mph - N/A   Mostly Cloudy
8:58 AM 72.5 °F - 67.1 °F 83% 29.90 in 10.0 mi SE 10.4 mph - N/A   Mostly Cloudy
9:03 AM 73.4 °F - 68.0 °F 83% 29.90 in 10.0 mi SSE 11.5 mph - N/A   Mostly Cloudy
9:23 AM 73.4 °F - 68.0 °F 83% 29.90 in 10.0 mi SSE 12.7 mph - N/A   Mostly Cloudy
9:28 AM 75.2 °F - 68.0 °F 78% 29.90 in 10.0 mi SSE 11.5 mph - N/A   Mostly Cloudy
9:43 AM 77.0 °F - 68.0 °F 74% 29.90 in 10.0 mi SSE 13.8 mph - N/A   Mostly Cloudy
9:48 AM 77.0 °F - 68.0 °F 74% 29.90 in 10.0 mi SSE 11.5 mph - N/A   Mostly Cloudy
9:58 AM 76.3 °F - 68.0 °F 75% 29.90 in 10.0 mi SSE 9.2 mph 20.7 mph N/A   Mostly Cloudy
10:58 AM 76.5 °F - 68.0 °F 75% 29.90 in 10.0 mi SSE 12.7 mph - N/A   Overcast
11:43 AM 80.6 °F 83.2 °F 68.0 °F 65% 29.88 in 10.0 mi SSE 15.0 mph 19.6 mph N/A   Overcast
11:48 AM 78.8 °F - 68.0 °F 69% 29.88 in 10.0 mi SSE 10.4 mph 19.6 mph N/A   Mostly Cloudy
11:58 AM 78.8 °F - 69.1 °F 72% 29.87 in 10.0 mi SE 8.1 mph - N/A   Mostly Cloudy
12:13 PM 78.8 °F - 69.8 °F 74% 29.86 in 9.0 mi South 10.4 mph - N/A Rain Light Rain
12:16 PM 78.8 °F - 69.8 °F 74% 29.86 in 4.0 mi South 9.2 mph - N/A Rain Light Rain
12:31 PM 75.2 °F - 69.8 °F 83% 29.85 in 2.0 mi South 13.8 mph - N/A Rain Light Rain
12:41 PM 75.2 °F - 71.6 °F 89% 29.84 in 9.0 mi South 6.9 mph - N/A   Mostly Cloudy
12:46 PM 77.0 °F - 71.6 °F 83% 29.84 in 10.0 mi South 5.8 mph - N/A   Mostly Cloudy
12:50 PM 77.0 °F - 71.6 °F 83% 29.84 in 10.0 mi SSW 5.8 mph - N/A Rain Light Rain
12:58 PM 75.9 °F - 71.8 °F 87% 29.84 in 3.0 mi South 9.2 mph - 0.26 in Rain Rain
1:03 PM 75.2 °F - 69.8 °F 83% 29.83 in 3.0 mi South 11.5 mph - N/A Rain Light Rain
1:05 PM 75.2 °F - 71.6 °F 89% 29.83 in 9.0 mi South 10.4 mph - N/A   Mostly Cloudy
1:58 PM 80.6 °F 84.4 °F 71.4 °F 73% 29.79 in 10.0 mi South 16.1 mph 20.7 mph 0.00 in   Mostly Cloudy
2:58 PM 82.4 °F 86.3 °F 70.2 °F 66% 29.76 in 10.0 mi South 17.3 mph 25.3 mph N/A   Mostly Cloudy
3:14 PM 80.6 °F 83.9 °F 69.8 °F 70% 29.76 in 10.0 mi South 18.4 mph 25.3 mph N/A   Light Drizzle
3:23 PM 80.6 °F 83.2 °F 68.0 °F 65% 29.76 in 10.0 mi South 19.6 mph 29.9 mph N/A   Mostly Cloudy
3:41 PM 78.8 °F - 69.8 °F 74% 29.75 in 10.0 mi SSE 20.7 mph 25.3 mph N/A   Light Drizzle
3:51 PM 78.8 °F - 69.8 °F 74% 29.74 in 10.0 mi South 15.0 mph 24.2 mph N/A   Mostly Cloudy
3:58 PM 78.4 °F - 70.0 °F 75% 29.73 in 10.0 mi South 16.1 mph 20.7 mph 0.00 in   Mostly Cloudy
4:28 PM 78.8 °F - 69.8 °F 74% 29.72 in 10.0 mi South 12.7 mph - N/A Rain Light Rain
4:33 PM 77.0 °F - 69.8 °F 78% 29.72 in 10.0 mi South 13.8 mph - N/A   Mostly Cloudy
4:58 PM 76.8 °F - 70.3 °F 80% 29.71 in 10.0 mi SSE 16.1 mph 23.0 mph 0.00 in   Mostly Cloudy
5:58 PM 75.7 °F - 70.3 °F 83% 29.68 in 10.0 mi SSE 16.1 mph 23.0 mph N/A   Mostly Cloudy
6:18 PM 75.2 °F - 69.8 °F 83% 29.67 in 10.0 mi SSE 16.1 mph 28.8 mph N/A   Mostly Cloudy
6:23 PM 75.2 °F - 69.8 °F 83% 29.68 in 10.0 mi SSE 16.1 mph 28.8 mph N/A   Mostly Cloudy
6:28 PM 75.2 °F - 69.8 °F 83% 29.67 in 10.0 mi SSE 15.0 mph 25.3 mph N/A   Mostly Cloudy
6:58 PM 75.2 °F - 69.4 °F 82% 29.68 in 10.0 mi SSE 16.1 mph 27.6 mph N/A   Mostly Cloudy
7:58 PM 74.7 °F - 69.6 °F 84% 29.67 in 10.0 mi SSE 16.1 mph 24.2 mph N/A   Mostly Cloudy
8:00 PM 75.2 °F - 69.8 °F 83% 29.67 in 10.0 mi SSE 15.0 mph 24.2 mph N/A Rain Light Rain
8:05 PM 75.2 °F - 69.8 °F 83% 29.68 in 10.0 mi SSE 17.3 mph 24.2 mph N/A Rain Light Rain
8:10 PM 75.2 °F - 69.8 °F 83% 29.68 in 10.0 mi SSE 16.1 mph 28.8 mph N/A   Mostly Cloudy
8:11 PM 75.2 °F - 69.8 °F 83% 29.68 in 10.0 mi SSE 15.0 mph 28.8 mph N/A Rain Light Rain
8:16 PM 75.2 °F - 69.8 °F 83% 29.67 in 10.0 mi SSE 17.3 mph 28.8 mph N/A Rain Light Rain
8:21 PM 75.2 °F - 69.8 °F 83% 29.67 in 10.0 mi SSE 18.4 mph 25.3 mph N/A Rain , Thunderstorm Light Thunderstorms and Rain
8:36 PM 73.4 °F - 69.8 °F 88% 29.69 in 10.0 mi SSE 15.0 mph 21.9 mph N/A Rain Light Rain
8:58 PM 73.6 °F - 70.2 °F 89% 29.71 in 8.0 mi South 15.0 mph 24.2 mph 0.02 in Rain Light Rain
8:59 PM 73.4 °F - 69.8 °F 88% 29.71 in 7.0 mi South 11.5 mph 24.2 mph N/A Rain , Thunderstorm Thunderstorms and Rain
9:03 PM 73.4 °F - 69.8 °F 88% 29.71 in 5.0 mi SSE 15.0 mph 24.2 mph N/A Rain , Thunderstorm Light Thunderstorms and Rain
9:08 PM 73.4 °F - 69.8 °F 88% 29.72 in 2.5 mi South 17.3 mph 19.6 mph N/A Rain , Thunderstorm Heavy Thunderstorms and Rain
9:09 PM 73.4 °F - 69.8 °F 88% 29.72 in 2.5 mi SSW 19.6 mph 27.6 mph N/A Rain , Thunderstorm Heavy Thunderstorms and Rain
9:14 PM 73.4 °F - 69.8 °F 88% 29.73 in 2.0 mi South 16.1 mph 27.6 mph N/A Rain , Thunderstorm Heavy Thunderstorms and Rain
9:19 PM 73.4 °F - 69.8 °F 88% 29.75 in 3.0 mi South 16.1 mph 27.6 mph N/A Rain , Thunderstorm Light Thunderstorms and Rain
9:24 PM 71.6 °F - 68.0 °F 88% 29.75 in 1.0 mi South 26.5 mph 40.3 mph N/A Rain , Thunderstorm Heavy Thunderstorms and Rain
9:26 PM 69.8 °F - 66.2 °F 88% 29.77 in 0.8 mi SW 18.4 mph 40.3 mph N/A Rain , Thunderstorm Heavy Thunderstorms and Rain
9:41 PM 69.8 °F - 66.2 °F 88% 29.75 in 1.8 mi SSW 24.2 mph 40.3 mph N/A Rain , Thunderstorm Thunderstorms and Rain
9:46 PM 68.0 °F - 66.2 °F 94% 29.75 in 5.0 mi South 16.1 mph 35.7 mph N/A Rain , Thunderstorm Thunderstorms and Rain
9:58 PM 68.2 °F - 66.0 °F 93% 29.74 in 10.0 mi SSE 23.0 mph 28.8 mph 0.55 in Rain , Thunderstorm Light Thunderstorms and Rain
10:05 PM 68.0 °F - 66.2 °F 94% 29.71 in 9.0 mi SSE 19.6 mph 28.8 mph N/A Rain Rain
10:29 PM 68.0 °F - 66.2 °F 94% 29.74 in 10.0 mi South 20.7 mph 27.6 mph N/A   Scattered Clouds
10:58 PM 68.0 °F - 65.7 °F 92% 29.75 in 10.0 mi South 13.8 mph - 0.04 in   Mostly Cloudy
11:58 PM 69.1 °F - 67.3 °F 94% 29.74 in 10.0 mi South 9.2 mph - N/A   Overcast